Wind_Speed
10 10 9 9 8 7 5 5 5 4 3 2 2 2 3 4 5 7 8 8 9 10 10 10 11 11 11 10 10 9 8 7 6 6 6 6 6 8 8 9 11 12 12
11 10 10 9 8 6 5 5 4 4 3 3 2 2 3 4 5 6 7 8 9 10 10 10 11 11 10 10 10 9 8 7 6 5 5 5 5 6 7 8 9 11 12
11 10 10 9 8 7 5 5 4 4 4 3 2 2 3 4 5 6 7 8 9 9 10 10 10 11 11 10 10 10 9 8 7 6 5 4 4 5 6 7 8 9 11
11 10 9 9 8 7 6 5 4 4 4 3 2 2 3 4 5 6 7 8 8 9 10 10 10 10 11 10 10 10 9 8 7 6 5 4 3 3 5 6 7 9 10
10 9 9 9 8 7 6 5 5 4 4 3 3 3 3 4 5 6 7 8 8 9 9 10 10 11 11 10 10 10 9 8 7 6 5 4 3 3 4 5 7 8 10
10 9 9 8 7 7 6 5 5 4 4 4 3 3 4 5 6 6 7 7 8 8 9 9 10 10 11 11 10 10 9 8 8 7 6 4 4 3 4 5 6 8 9
10 9 9 7 7 7 6 5 5 5 4 4 4 4 5 5 6 6 7 7 7 8 8 9 9 10 10 11 10 10 9 9 8 7 6 5 5 4 4 5 6 7 9
10 9 8 7 7 6 6 6 5 5 5 5 5 5 5 5 5 5 6 6 7 8 8 9 9 9 10 10 10 10 9 9 8 8 7 6 6 6 6 6 7 7 8
10 9 8 8 7 7 6 6 6 6 5 5 5 5 5 5 5 6 6 7 7 7 8 9 9 9 10 10 10 10 9 9 9 8 8 7 7 7 7 7 8 8 9
10 9 8 8 8 7 7 6 6 6 6 6 6 6 5 5 6 6 7 7 8 8 9 10 10 10 10 10 10 10 9 9 9 9 9 8 8 8 8 8 8 9 9
9 9 9 9 8 8 7 7 7 6 7 7 6 6 6 6 6 7 7 8 9 10 10 11 11 11 11 11 11 11 11 10 10 10 10 10 10 10 9 9 10 10 10
9 9 9 9 9 9 8 8 7 7 7 7 7 7 7 7 7 8 9 9 10 11 11 12 12 12 12 12 12 12 12 12 12 12 11 11 11 12 12 12 12 12 12
10 10 10 10 9 9 9 9 8 8 8 8 8 8 8 8 9 10 11 11 12 13 13 13 13 13 13 14 14 14 14 14 14 14 14 14 14 14 14 14 14 14 15
10 10 10 10 10 10 10 9 9 9 9 9 10 10 10 10 11 12 12 13 14 14 14 15 15 15 15 15 15 16 16 16 16 16 16 16 17 17 17 17 17 17 17
11 11 11 10 10 10 11 10 10 11 11 11 12 12 12 12 13 13 14 15 15 15 16 16 17 17 17 17 17 17 18 18 19 19 19 19 19 19 19 19 19 20 20
11 11 11 11 11 11 11 11 12 12 13 13 13 14 14 15 15 15 16 17 17 18 18 18 19 19 20 20 20 21 21 21 21 22 22 22 22 22 21 21 21 22 22
11 11 11 12 12 12 12 12 13 13 14 15 16 16 17 17 17 18 18 19 19 20 20 21 21 22 22 23 23 24 24 24 24 24 24 24 24 24 24 24 24 24 24
12 12 12 13 13 13 14 14 14 15 16 17 18 19 19 19 20 20 21 21 22 22 23 24 24 24 24 25 25 26 26 26 26 26 26 26 27 27 27 27 26 27 27
13 13 13 14 14 15 15 16 16 17 18 18 19 20 20 21 22 22 23 24 24 25 25 26 26 26 27 27 27 28 28 29 29 29 29 29 29 30 30 30 30 30 30
14 14 14 15 15 16 16 17 18 19 20 20 21 22 23 23 24 25 25 26 27 27 28 28 28 28 29 30 30 31 31 31 32 32 32 33 33 33 33 34 34 34 34
15 15 16 16 17 18 18 19 20 20 21 22 23 24 25 25 26 27 28 29 29 30 30 31 31 32 32 33 33 33 34 34 35 35 36 36 36 37 37 38 38 38 38
17 17 18 18 19 20 20 21 22 22 23 24 25 26 27 27 28 29 30 31 31 32 33 33 34 34 35 35 36 36 37 38 38 39 39 39 40 40 40 41 41 41 41
18 19 20 21 21 22 22 23 24 25 25 26 27 27 28 29 30 31 32 33 34 35 35 36 36 37 38 38 38 39 40 40 41 41 42 42 43 43 43 43 43 44 44
20 21 22 23 23 24 25 26 26 27 28 29 29 30 30 31 32 33 34 35 36 37 38 39 40 40 40 41 41 41 42 43 43 43 44 44 45 45 45 46 46 46 47
22 23 24 25 26 26 27 28 29 29 30 31 31 32 32 33 34 36 37 38 38 39 40 41 42 42 42 42 43 44 44 45 45 45 46 47 47 47 47 47 47 48 48
24 25 26 27 27 28 29 30 31 31 32 33 33 34 34 35 37 38 39 40 41 42 43 43 43 43 44 44 45 46 46 47 48 48 48 48 49 49 49 49 49 50 50
Wind_Direction
200 198 201 206 211 215 219 223 223 225 233 249 276 316 340 348 349 350 352 354 354 353 352 352 352 353 353 353 353 350 345 336 326 316 304 288 267 254 246 242 234 228 226
204 202 201 206 209 211 215 218 223 227 228 239 271 313 331 344 347 348 350 354 356 357 356 354 356 358 358 359 357 354 351 346 339 329 319 302 276 256 245 241 236 231 226
204 204 206 208 213 213 214 216 223 234 236 244 265 302 325 334 340 344 346 350 354 357 359 1 1 1 2 0 359 359 356 350 347 341 334 319 291 261 246 240 235 234 231
201 204 207 208 207 208 209 213 227 235 238 245 262 290 317 329 336 340 346 349 351 354 357 0 3 3 3 3 3 2 359 356 353 347 339 329 308 273 250 242 240 238 237
201 206 206 199 199 203 210 219 231 232 234 246 263 284 305 323 332 336 340 344 347 350 354 358 2 4 4 4 3 2 1 359 357 355 350 340 323 293 267 252 247 243 241
203 205 201 202 204 206 213 223 230 235 242 254 266 283 299 315 323 327 333 340 345 349 352 355 358 1 3 4 2 2 1 1 359 357 354 345 330 310 288 267 255 251 248
204 203 202 205 207 212 218 223 232 238 250 261 268 282 297 311 319 324 330 337 343 347 349 352 355 358 1 3 3 3 2 0 358 356 355 349 337 323 308 289 273 264 258
200 202 201 207 212 218 224 228 235 244 252 260 266 280 296 307 316 322 328 334 338 342 343 346 350 354 356 359 359 358 358 357 355 353 351 346 339 327 314 299 285 276 265
202 204 206 210 217 226 231 237 242 249 256 262 266 276 292 301 311 318 322 329 334 337 340 342 344 348 350 351 352 353 351 350 349 347 343 337 331 323 315 305 294 284 274
205 209 214 218 223 228 232 241 249 252 256 263 269 278 287 296 304 310 316 324 329 331 333 334 336 338 340 342 342 342 344 343 340 338 335 328 322 317 314 305 297 291 282
209 215 219 224 228 232 232 240 249 260 262 264 270 278 283 293 301 304 309 315 319 323 325 326 327 329 330 330 331 331 332 332 332 330 328 323 318 313 310 304 296 292 286
216 220 223 228 231 233 238 247 253 260 262 268 276 281 282 287 294 299 302 308 312 314 317 319 319 320 321 322 322 322 321 322 321 319 318 316 313 309 305 302 295 290 287
219 221 224 227 232 235 242 250 255 259 263 269 275 279 283 288 292 295 298 302 307 309 311 313 314 314 315 315 314 311 311 313 314 312 310 308 307 305 302 299 296 291 287
219 223 227 230 235 237 244 250 254 259 265 272 275 279 282 286 289 292 295 298 302 305 307 308 311 311 311 310 309 307 306 307 307 306 304 303 303 301 299 296 294 291 288
225 229 233 235 237 242 247 254 259 262 267 271 275 279 282 284 287 290 293 295 298 301 303 304 305 306 306 306 306 305 304 303 302 301 300 299 298 298 297 294 292 290 287
228 231 232 236 243 248 254 260 264 266 270 274 277 280 283 285 286 288 291 294 295 297 299 300 300 301 302 302 302 301 301 300 300 299 296 295 294 294 293 291 290 289 288
229 231 236 243 249 255 260 264 267 271 274 277 280 282 284 285 287 289 291 293 295 296 297 298 298 298 300 300 300 299 299 299 298 298 296 293 292 291 291 290 290 289 288
234 239 245 249 255 260 265 267 271 275 278 280 282 283 285 286 287 290 292 294 295 295 296 297 297 297 297 297 297 297 297 297 296 295 294 293 291 289 289 288 288 288 288
240 246 251 256 260 265 270 272 274 278 281 283 284 286 287 286 287 289 291 293 294 294 296 296 295 296 296 295 294 294 294 294 294 293 292 292 291 289 288 287 287 287 286
248 252 256 261 265 269 273 275 278 280 282 285 286 287 288 287 287 289 290 291 292 293 294 295 294 294 294 294 294 294 294 293 292 291 291 291 290 289 288 287 287 286 286
253 257 260 264 267 271 275 277 280 281 284 286 287 288 288 288 288 290 290 291 291 292 293 294 294 294 294 293 293 293 293 293 292 291 290 289 289 288 288 287 286 286 285
256 260 264 268 271 274 277 279 281 282 284 286 287 288 289 289 290 290 290 291 292 292 293 294 294 293 293 293 292 292 292 292 292 291 290 289 288 288 287 287 286 285 284
260 263 267 270 273 276 280 282 283 283 284 286 287 289 289 289 290 290 290 291 292 292 293 294 294 294 293 293 292 292 292 292 292 292 291 290 289 288 287 286 286 285 284
262 266 270 273 275 278 280 282 283 285 286 287 288 289 290 290 290 291 292 292 292 292 293 294 294 294 294 293 293 293 293 293 293 292 292 292 290 289 287 287 286 285 284
266 269 272 275 277 279 281 283 284 285 287 288 289 289 290 290 291 292 293 293 293 294 294 294 294 294 293 293 292 293 294 294 294 293 292 292 291 289 288 287 286 285 285
270 272 274 276 278 280 281 283 285 286 288 289 290 290 290 291 292 293 294 294 295 295 295 294 294 294 294 293 293 294 294 295 295 294 293 293 292 290 289 287 286 285 285
Height
5872 5873 5875 5876 5878 5879 5879 5880 5880 5881 5881 5881 5881 5881 5880 5879 5878 5877 5875 5874 5872 5870 5868 5865 5863 5861 5858 5856 5853 5851 5850 5848 5847 5846 5845 5845 5844 5845 5845 5846 5847 5848 5849
5871 5872 5874 5875 5877 5878 5878 5879 5880 5880 5880 5880 5880 5880 5879 5879 5878 5876 5875 5873 5871 5869 5867 5865 5863 5860 5858 5855 5853 5851 5849 5847 5846 5845 5844 5844 5844 5843 5844 5844 5845 5846 5847
5870 5871 5873 5875 5876 5877 5878 5878 5879 5879 5880 5880 5880 5879 5879 5878 5877 5876 5874 5873 5871 5869 5867 5865 5862 5860 5858 5855 5853 5851 5849 5847 5846 5844 5844 5843 5842 5842 5843 5843 5844 5845 5846
5869 5870 5872 5874 5875 5876 5877 5877 5878 5878 5879 5879 5879 5878 5878 5877 5876 5875 5873 5872 5870 5869 5867 5864 5862 5860 5857 5855 5853 5851 5849 5847 5845 5844 5843 5842 5841 5841 5842 5842 5843 5843 5844
5868 5869 5871 5873 5874 5875 5876 5877 5877 5877 5878 5878 5878 5877 5877 5876 5875 5874 5873 5871 5870 5868 5866 5864 5862 5860 5857 5855 5853 5850 5849 5847 5845 5844 5843 5842 5841 5841 5841 5841 5842 5842 5842
5867 5868 5870 5872 5873 5874 5875 5875 5876 5876 5877 5877 5877 5876 5876 5875 5874 5873 5872 5870 5869 5867 5865 5863 5861 5859 5857 5855 5853 5850 5848 5847 5845 5844 5843 5842 5841 5840 5840 5840 5840 5840 5841
5866 5867 5869 5871 5872 5873 5874 5874 5875 5875 5875 5875 5875 5875 5874 5874 5873 5872 5871 5869 5868 5866 5865 5863 5861 5859 5857 5855 5852 5850 5848 5847 5845 5844 5842 5841 5840 5840 5839 5839 5839 5839 5839
5865 5866 5868 5869 5870 5872 5873 5873 5874 5874 5874 5874 5874 5874 5873 5872 5872 5871 5869 5868 5867 5865 5864 5862 5860 5858 5856 5854 5852 5850 5848 5847 5845 5843 5842 5841 5840 5839 5838 5838 5838 5837 5837
5863 5865 5867 5868 5869 5870 5871 5872 5873 5873 5873 5873 5873 5872 5872 5871 5870 5869 5868 5867 5866 5864 5863 5861 5859 5858 5856 5854 5852 5850 5848 5846 5844 5843 5842 5840 5839 5838 5837 5836 5836 5836 5836
5862 5864 5866 5867 5868 5869 5870 5871 5871 5871 5871 5871 5871 5870 5870 5869 5869 5868 5867 5866 5864 5863 5862 5860 5858 5857 5855 5853 5851 5849 5847 5845 5844 5842 5841 5839 5838 5837 5836 5835 5834 5833 5833
5861 5863 5864 5865 5866 5867 5868 5869 5869 5869 5869 5869 5869 5868 5868 5867 5867 5866 5865 5864 5863 5862 5860 5858 5857 5855 5853 5851 5850 5848 5846 5844 5842 5841 5839 5838 5837 5835 5834 5833 5832 5831 5831
5860 5861 5862 5864 5865 5865 5866 5867 5867 5867 5867 5867 5867 5866 5866 5865 5865 5864 5863 5862 5861 5860 5858 5856 5855 5853 5851 5849 5848 5846 5844 5842 5841 5839 5837 5836 5834 5833 5832 5831 5830 5829 5828
5858 5859 5861 5862 5863 5863 5864 5865 5865 5865 5865 5864 5864 5864 5863 5863 5862 5862 5861 5860 5858 5857 5855 5854 5852 5851 5849 5847 5845 5843 5842 5840 5838 5836 5835 5833 5832 5830 5829 5827 5826 5825 5824
5856 5857 5859 5860 5860 5861 5862 5862 5862 5862 5862 5862 5861 5861 5861 5860 5859 5859 5858 5857 5855 5854 5852 5851 5849 5847 5846 5844 5842 5840 5838 5836 5834 5833 5831 5829 5828 5826 5824 5823 5822 5820 5819
5854 5855 5856 5857 5858 5859 5859 5859 5859 5859 5858 5858 5858 5857 5857 5857 5856 5855 5854 5853 5852 5850 5848 5847 5845 5843 5842 5840 5838 5836 5834 5832 5830 5828 5826 5825 5823 5821 5819 5818 5816 5815 5813
5851 5852 5853 5854 5855 5856 5856 5856 5855 5855 5854 5854 5854 5853 5853 5852 5852 5851 5850 5848 5847 5846 5844 5842 5840 5839 5837 5835 5833 5831 5829 5827 5825 5823 5821 5819 5817 5815 5813 5812 5810 5808 5807
5849 5850 5851 5851 5852 5852 5852 5852 5852 5851 5851 5850 5849 5848 5848 5847 5847 5846 5845 5843 5842 5841 5839 5837 5835 5833 5831 5829 5827 5825 5823 5821 5819 5816 5814 5812 5810 5809 5807 5805 5804 5802 5800
5846 5847 5848 5848 5848 5848 5848 5848 5848 5847 5846 5845 5844 5843 5843 5842 5841 5840 5839 5838 5836 5835 5833 5831 5828 5826 5824 5822 5820 5818 5816 5814 5811 5809 5807 5805 5803 5801 5799 5798 5796 5794 5792
5843 5843 5844 5844 5845 5845 5844 5844 5843 5843 5842 5840 5839 5838 5837 5836 5835 5834 5833 5831 5829 5828 5825 5823 5821 5819 5817 5815 5812 5810 5808 5806 5803 5801 5799 5797 5795 5793 5791 5789 5787 5785 5783
5839 5840 5840 5840 5840 5840 5840 5839 5838 5838 5837 5835 5834 5833 5832 5830 5829 5828 5826 5824 5822 5820 5818 5816 5813 5811 5809 5806 5804 5801 5799 5797 5794 5792 5790 5788 5786 5783 5781 5779 5777 5775 5773
5835 5835 5836 5836 5836 5836 5835 5834 5833 5832 5831 5830 5828 5827 5825 5824 5822 5820 5818 5816 5814 5812 5810 5807 5805 5802 5800 5797 5795 5792 5789 5786 5784 5781 5779 5777 5774 5772 5769 5767 5765 5763 5761
5830 5831 5831 5831 5831 5830 5830 5829 5828 5826 5825 5824 5822 5820 5818 5817 5815 5813 5810 5808 5806 5804 5801 5799 5796 5793 5790 5787 5784 5781 5778 5775 5773 5770 5767 5765 5762 5760 5757 5754 5752 5750 5748
5825 5825 5825 5825 5825 5824 5823 5822 5821 5820 5818 5817 5815 5813 5811 5809 5807 5804 5802 5799 5797 5794 5791 5789 5786 5783 5780 5776 5773 5770 5767 5764 5761 5758 5755 5752 5749 5746 5743 5741 5738 5736 5733
5819 5819 5819 5819 5818 5817 5816 5815 5814 5812 5810 5809 5807 5805 5802 5800 5798 5795 5793 5790 5787 5784 5781 5778 5774 5771 5768 5765 5761 5758 5755 5751 5748 5744 5741 5738 5734 5731 5728 5726 5723 5720 5718
5813 5813 5812 5812 5811 5810 5809 5808 5806 5804 5802 5800 5798 5796 5793 5791 5788 5786 5783 5779 5776 5772 5769 5766 5762 5759 5756 5752 5748 5744 5741 5738 5734 5730 5727 5724 5720 5717 5713 5710 5707 5704 5702
5806 5805 5805 5804 5803 5802 5801 5799 5797 5796 5794 5791 5789 5786 5784 5781 5778 5775 5772 5768 5764 5761 5756 5752 5749 5745 5742 5738 5735 5731 5727 5723 5719 5715 5712 5708 5704 5701 5697 5694 5691 5688 5685